Precipitable_Water
0.48 0.45 0.44 0.44 0.43 0.43 0.43 0.44 0.44 0.44 0.44 0.50 0.58 0.72 0.82 0.97 1.20 1.32 1.27 1.57 2.05 2.35 2.35 2.20 2.03 1.87 1.78 1.48 1.45 1.37 0.77 0.61 0.68 0.75 0.87 1.13 1.05 1.19 1.25 1.08 1.11 1.21 1.16 1.36 1.55
0.46 0.43 0.42 0.41 0.40 0.41 0.41 0.41 0.41 0.42 0.43 0.44 0.52 0.70 0.80 0.94 1.04 1.10 1.25 1.71 2.13 2.42 2.12 1.78 1.66 1.70 1.47 1.44 1.36 1.18 0.86 0.79 0.86 0.87 0.86 1.03 1.03 1.06 1.01 1.00 1.04 1.07 1.35 1.51 1.54
0.47 0.43 0.42 0.39 0.37 0.39 0.39 0.40 0.40 0.41 0.42 0.42 0.43 0.50 0.76 0.92 0.95 1.09 1.35 1.73 2.16 2.44 2.28 2.04 1.94 1.79 1.49 1.57 1.37 1.23 1.00 1.14 0.95 0.95 1.03 0.96 1.02 1.08 0.97 0.85 0.96 0.94 1.26 1.43 1.41
0.49 0.45 0.42 0.40 0.36 0.37 0.38 0.39 0.39 0.40 0.41 0.40 0.40 0.42 0.61 0.85 0.83 1.32 1.51 1.67 2.02 2.23 2.04 1.88 1.75 1.54 1.37 1.30 1.46 1.16 1.35 1.25 1.08 1.09 1.12 0.96 0.97 0.91 0.96 0.92 1.04 1.16 1.31 1.43 1.36
0.52 0.47 0.43 0.39 0.36 0.37 0.37 0.38 0.39 0.39 0.39 0.36 0.37 0.40 0.46 0.72 0.83 1.20 1.51 1.59 1.86 1.82 1.69 1.57 1.48 1.63 1.37 1.40 1.43 1.35 1.47 1.38 1.26 1.21 1.19 1.12 0.92 0.83 0.90 1.05 1.12 1.19 1.25 1.27 1.28
0.52 0.48 0.43 0.40 0.37 0.37 0.37 0.38 0.38 0.38 0.39 0.36 0.36 0.44 0.46 0.57 0.99 1.26 1.57 1.60 1.66 1.60 1.40 1.38 1.26 1.48 1.59 1.48 1.39 1.51 1.51 1.44 1.42 1.29 1.25 1.14 1.04 0.90 0.87 1.01 1.08 1.11 1.12 1.25 1.32
0.53 0.49 0.45 0.41 0.37 0.36 0.37 0.38 0.38 0.37 0.39 0.39 0.38 0.44 0.42 0.55 0.93 1.23 1.53 1.64 1.62 1.47 1.25 1.28 1.27 1.19 1.62 1.46 1.63 1.53 1.31 1.37 1.42 1.34 1.21 1.24 1.01 0.82 0.91 0.92 0.95 1.05 1.11 1.21 1.28
0.54 0.51 0.46 0.42 0.37 0.36 0.36 0.36 0.37 0.38 0.38 0.41 0.41 0.46 0.38 0.61 0.87 1.09 1.34 1.42 1.38 1.29 1.19 1.18 1.17 1.05 1.12 1.44 1.35 1.18 1.16 1.00 1.30 1.38 1.30 1.16 0.85 1.04 0.96 0.84 0.84 0.96 1.08 1.16 1.26
0.55 0.51 0.48 0.43 0.37 0.35 0.33 0.33 0.35 0.38 0.43 0.43 0.40 0.42 0.31 0.53 0.53 0.95 1.25 1.13 1.12 1.04 0.92 1.06 1.00 0.85 1.16 1.07 1.04 1.06 0.84 0.88 0.99 1.31 1.31 1.22 0.93 1.13 1.14 1.03 0.80 0.86 0.95 1.09 1.20
0.56 0.52 0.47 0.43 0.37 0.35 0.36 0.39 0.43 0.45 0.44 0.47 0.56 0.41 0.41 0.34 0.38 0.71 1.07 1.12 1.01 0.85 0.75 0.77 0.75 0.68 0.73 0.86 0.65 0.76 0.81 0.86 0.78 0.98 1.19 1.17 1.05 1.12 1.22 1.17 1.13 0.97 0.90 0.95 1.03
0.58 0.52 0.46 0.42 0.42 0.43 0.38 0.35 0.30 0.24 0.33 0.26 0.31 0.32 0.33 0.38 0.44 0.48 0.60 0.84 0.83 0.78 0.63 0.64 0.60 0.51 0.52 0.68 0.78 0.73 0.74 0.77 0.84 0.95 0.99 0.97 1.02 1.10 1.23 1.23 1.14 1.13 1.14 0.94 0.97
0.60 0.53 0.46 0.40 0.40 0.43 0.40 0.26 0.30 0.30 0.20 0.30 0.31 0.32 0.36 0.38 0.27 0.27 0.37 0.34 0.54 0.60 0.57 0.54 0.50 0.52 0.60 0.67 0.65 0.55 0.59 0.68 0.77 0.90 0.89 0.85 0.85 1.03 1.11 1.17 1.23 1.24 1.25 1.22 1.07
0.64 0.57 0.48 0.40 0.30 0.29 0.25 0.31 0.37 0.34 0.22 0.22 0.27 0.27 0.29 0.31 0.23 0.22 0.29 0.26 0.20 0.35 0.40 0.43 0.42 0.48 0.48 0.46 0.50 0.48 0.52 0.54 0.50 0.72 0.84 0.63 0.58 0.87 0.98 1.12 1.28 1.34 1.42 1.38 1.33
0.72 0.61 0.50 0.40 0.17 0.20 0.23 0.33 0.32 0.34 0.16 0.17 0.19 0.24 0.24 0.23 0.19 0.24 0.25 0.20 0.17 0.22 0.25 0.38 0.36 0.39 0.41 0.44 0.47 0.44 0.44 0.39 0.42 0.51 0.41 0.55 0.27 0.38 0.74 0.83 1.01 1.23 1.36 1.40 1.40
0.83 0.72 0.55 0.45 0.26 0.21 0.25 0.30 0.32 0.28 0.05 0.21 0.19 0.21 0.22 0.19 0.18 0.19 0.23 0.20 0.15 0.20 0.25 0.28 0.30 0.30 0.33 0.31 0.33 0.32 0.34 0.32 0.31 0.27 0.26 0.26 0.24 0.27 0.54 0.67 0.82 1.04 1.20 1.33 1.40
0.76 0.83 0.71 0.42 0.31 0.30 0.31 0.30 0.26 0.11 0.05 0.19 0.21 0.16 0.15 0.16 0.17 0.20 0.20 0.20 0.20 0.19 0.22 0.25 0.30 0.30 0.30 0.28 0.27 0.26 0.24 0.22 0.25 0.23 0.16 0.13 0.12 0.17 0.49 0.60 0.77 1.02 1.17 1.25 1.41
0.75 0.72 0.76 0.62 0.21 0.34 0.33 0.26 0.12 0.07 0.18 0.17 0.18 0.19 0.18 0.16 0.17 0.18 0.16 0.15 0.14 0.14 0.17 0.19 0.21 0.24 0.23 0.20 0.23 0.21 0.18 0.12 0.10 0.13 0.12 0.25 0.21 0.46 0.73 0.84 0.89 1.02 1.22 1.37 1.52
0.74 0.69 0.65 0.65 0.48 0.38 0.30 0.19 0.08 0.09 0.17 0.24 0.22 0.20 0.17 0.18 0.17 0.18 0.15 0.14 0.19 0.20 0.20 0.16 0.14 0.20 0.25 0.21 0.17 0.16 0.15 0.11 0.09 0.10 0.15 0.52 0.40 0.54 0.92 1.17 1.23 1.32 1.42 1.56 1.48
0.71 0.58 0.57 0.55 0.55 0.35 0.27 0.14 0.09 0.13 0.26 0.23 0.21 0.17 0.17 0.18 0.18 0.18 0.19 0.18 0.21 0.22 0.20 0.19 0.16 0.24 0.26 0.24 0.20 0.18 0.16 0.17 0.15 0.17 0.33 0.57 0.67 0.80 0.96 1.09 1.29 1.43 1.53 1.46 1.49
0.55 0.48 0.43 0.51 0.42 0.30 0.27 0.16 0.17 0.27 0.31 0.29 0.23 0.21 0.15 0.17 0.18 0.19 0.21 0.24 0.23 0.25 0.27 0.25 0.19 0.26 0.28 0.28 0.22 0.18 0.21 0.12 0.16 0.14 0.34 0.46 0.51 0.58 0.81 0.96 1.16 1.19 1.26 1.36 1.45
0.48 0.33 0.38 0.36 0.27 0.27 0.20 0.21 0.22 0.26 0.33 0.30 0.29 0.25 0.22 0.19 0.19 0.19 0.23 0.26 0.26 0.27 0.29 0.28 0.27 0.26 0.28 0.25 0.20 0.18 0.17 0.17 0.17 0.18 0.37 0.34 0.41 0.67 0.70 0.80 0.88 0.95 1.06 1.14 1.24
0.46 0.27 0.45 0.36 0.22 0.22 0.19 0.22 0.23 0.21 0.27 0.31 0.34 0.29 0.25 0.23 0.22 0.23 0.22 0.27 0.33 0.29 0.25 0.29 0.27 0.23 0.25 0.32 0.31 0.26 0.22 0.20 0.14 0.16 0.31 0.40 0.38 0.66 0.65 0.73 0.78 0.82 0.93 1.04 1.11
0.42 0.45 0.59 0.39 0.25 0.27 0.30 0.28 0.29 0.20 0.22 0.30 0.35 0.35 0.35 0.26 0.24 0.26 0.28 0.36 0.36 0.31 0.29 0.31 0.24 0.19 0.22 0.27 0.31 0.25 0.25 0.23 0.22 0.24 0.23 0.30 0.38 0.63 0.66 0.68 0.70 0.67 0.72 0.77 0.82
0.50 0.40 0.56 0.51 0.47 0.39 0.36 0.32 0.31 0.34 0.25 0.35 0.40 0.39 0.35 0.30 0.30 0.28 0.30 0.34 0.36 0.36 0.36 0.33 0.28 0.23 0.17 0.22 0.28 0.25 0.28 0.28 0.23 0.18 0.21 0.27 0.37 0.49 0.54 0.55 0.60 0.64 0.71 0.78 0.83
0.61 0.56 0.65 0.48 0.48 0.43 0.40 0.37 0.32 0.29 0.31 0.48 0.39 0.39 0.34 0.30 0.30 0.30 0.33 0.35 0.39 0.40 0.35 0.33 0.27 0.30 0.30 0.32 0.30 0.30 0.31 0.31 0.26 0.26 0.22 0.31 0.36 0.47 0.53 0.57 0.63 0.69 0.72 0.73 0.74
0.62 0.65 0.78 0.64 0.64 0.47 0.51 0.42 0.37 0.36 0.39 0.40 0.39 0.40 0.38 0.33 0.33 0.32 0.36 0.37 0.38 0.40 0.36 0.38 0.30 0.30 0.27 0.32 0.32 0.30 0.33 0.33 0.33 0.33 0.34 0.38 0.40 0.55 0.58 0.62 0.60 0.61 0.61 0.61 0.62
0.93 0.94 0.81 0.68 0.61 0.53 0.53 0.51 0.43 0.46 0.46 0.51 0.45 0.42 0.41 0.40 0.41 0.43 0.45 0.45 0.44 0.40 0.37 0.35 0.31 0.28 0.22 0.29 0.28 0.23 0.31 0.35 0.37 0.43 0.43 0.38 0.46 0.56 0.54 0.57 0.60 0.61 0.63 0.61 0.61
Wind_Speed
5 6 6 5 5 5 5 4 4 3 3 2 1 1 2 3 3 5 4 6 8 9 8 5 8 8 10 10 11 9 11 11 12 12 12 14 12 12 10 14 11 9 14 17 19
5 6 6 6 6 5 5 4 4 4 3 2 1 1 3 3 5 5 6 8 12 11 12 10 7 9 10 10 9 11 11 9 9 12 16 15 14 12 12 14 9 13 18 19 18
5 5 6 6 6 6 5 5 4 4 3 2 2 2 3 5 7 6 8 11 12 13 11 14 14 13 12 10 9 9 9 7 10 11 14 14 12 11 15 9 13 18 19 19 17
5 5 6 6 6 6 6 5 5 4 3 3 3 4 4 7 8 7 10 11 12 11 10 11 11 11 7 8 8 9 7 7 10 12 13 13 12 11 9 9 14 17 19 18 17
5 5 6 6 6 6 6 6 5 4 4 3 4 5 7 7 7 8 12 12 11 9 7 7 7 9 9 8 8 7 7 9 10 10 11 12 9 10 8 13 15 17 17 17 15
5 6 6 6 7 7 7 7 6 5 5 4 5 6 8 6 7 8 12 12 9 7 5 5 6 7 9 9 7 7 7 6 9 9 9 9 8 8 9 14 15 16 15 15 14
6 6 6 7 7 7 8 7 7 6 5 6 7 8 8 7 7 9 13 12 9 5 3 3 3 4 11 7 6 5 5 7 7 7 8 10 6 6 12 13 14 14 14 14 13
7 7 7 7 7 7 8 8 8 8 7 7 8 8 8 6 8 10 13 11 9 6 6 5 2 3 7 5 7 5 5 5 5 6 6 6 5 8 12 13 12 13 13 13 12
8 8 8 7 7 7 7 8 8 8 8 9 9 8 7 6 10 11 12 11 8 6 6 7 4 4 5 5 2 2 4 3 3 6 5 5 6 10 12 11 11 12 11 11 10
9 9 9 9 7 7 6 7 8 8 9 10 10 7 8 8 10 13 12 12 10 8 5 5 4 4 5 5 6 5 4 3 3 5 6 6 5 10 12 11 10 10 10 10 10
11 11 11 10 8 7 6 7 7 8 10 12 10 10 9 7 9 12 12 12 11 9 7 7 5 7 9 10 9 7 6 6 4 4 6 7 7 10 11 9 9 9 9 9 9
12 12 12 12 11 10 8 7 7 10 12 13 13 13 13 11 10 12 12 12 12 12 9 7 8 7 5 8 7 7 6 6 4 6 7 7 7 11 13 13 11 11 9 9 9
13 13 13 12 13 13 12 11 10 10 12 15 15 13 13 13 12 12 12 11 12 12 12 12 11 8 5 5 5 3 4 3 5 5 5 4 7 10 15 13 13 13 10 10 10
14 14 13 13 12 12 14 12 12 11 9 14 15 15 14 14 13 15 14 12 10 12 13 14 11 11 7 6 7 6 7 5 4 6 7 7 7 8 15 16 16 15 13 12 11
16 15 14 13 14 13 13 13 11 11 9 12 14 13 14 14 12 12 16 13 13 13 10 13 10 10 9 9 9 11 8 9 8 7 7 9 8 11 9 14 17 16 16 11 11
18 17 16 14 15 15 14 13 12 9 13 10 12 13 13 14 14 14 13 13 13 13 13 15 12 11 11 10 10 10 9 8 9 9 9 10 11 11 10 15 15 16 16 15 11
20 18 17 17 17 16 14 12 10 12 11 11 13 13 13 14 14 15 14 14 14 13 13 13 12 12 10 10 12 9 7 9 9 9 11 10 6 10 13 13 17 17 16 16 16
21 19 16 18 18 18 16 13 13 12 13 11 13 13 15 15 15 14 11 13 14 13 12 13 13 12 10 9 12 11 11 11 11 10 11 7 9 10 9 6 10 14 15 15 16
21 14 14 16 19 19 17 16 15 14 13 11 12 14 14 16 15 13 12 15 14 14 13 13 14 12 11 8 9 11 9 11 8 8 7 10 9 8 6 7 9 12 16 14 14
17 13 13 14 16 18 19 20 16 15 12 12 13 12 15 16 15 14 13 13 12 12 12 13 11 11 12 8 7 9 10 8 9 9 8 9 8 9 6 6 8 8 10 11 11
13 11 12 12 14 16 20 22 20 18 13 13 14 15 17 16 16 13 13 11 12 11 9 10 10 12 9 8 9 9 9 7 8 8 11 10 10 8 9 9 8 7 7 8 8
13 11 10 9 11 14 18 20 21 21 19 18 16 18 17 16 13 13 13 12 11 12 10 10 10 10 10 9 9 6 7 8 9 10 9 10 12 10 9 8 8 7 8 9 8
12 9 8 10 9 11 14 16 19 21 22 19 16 16 14 17 14 14 12 11 12 11 12 11 9 9 9 10 9 7 8 7 8 8 10 10 13 11 11 10 10 9 10 11 12
9 8 8 7 9 11 12 14 15 19 21 21 19 18 15 14 13 16 13 9 10 9 8 7 8 11 14 15 12 10 9 8 9 10 12 13 14 14 13 12 11 11 11 13 14
9 9 9 10 9 8 9 11 13 14 19 17 16 19 16 13 12 13 13 11 8 7 7 7 8 9 10 11 12 12 11 11 11 12 11 15 14 15 14 14 13 14 15 16 19
9 9 9 9 9 7 5 8 10 12 18 14 17 18 17 16 17 17 14 11 11 7 7 9 10 10 10 11 11 12 11 10 12 12 10 12 13 15 15 15 15 16 18 21 23
9 8 8 8 6 4 5 5 8 12 12 12 17 15 12 14 15 14 11 12 11 9 9 8 8 9 12 12 12 14 15 14 13 13 14 15 17 17 17 18 19 20 22 26 29
Wind_Direction
267 269 272 278 282 286 285 288 298 312 321 327 343 159 151 146 133 124 108 105 117 115 110 116 134 110 125 117 106 101 101 102 104 104 118 128 111 117 95 120 127 132 141 139 139
273 272 272 275 277 280 280 283 288 298 303 303 269 166 156 147 140 138 118 113 120 115 95 89 93 127 123 120 106 99 102 111 103 102 117 126 124 113 109 124 114 126 135 141 140
282 279 276 274 274 272 273 279 283 287 285 270 219 175 159 153 143 135 127 126 124 112 93 82 88 105 114 120 105 108 102 102 115 105 120 119 117 104 117 117 132 136 141 145 142
296 289 282 276 273 269 268 274 278 276 264 245 210 182 168 155 148 141 139 134 132 123 106 87 81 82 120 112 108 102 95 102 104 113 115 117 110 113 111 109 133 139 143 144 148
309 297 288 280 274 268 265 268 271 265 248 228 202 181 166 162 168 156 154 146 138 134 123 103 91 95 105 132 114 111 90 88 104 114 126 122 116 108 109 121 130 139 146 152 154
323 307 293 284 278 269 263 262 261 255 238 219 199 185 170 171 171 168 168 166 157 147 126 114 96 101 120 129 119 127 119 104 107 102 118 118 126 106 116 123 130 141 149 156 159
318 317 303 291 282 271 263 258 254 245 230 212 196 186 185 190 186 176 175 174 178 178 168 150 101 99 140 115 136 116 106 104 119 112 103 111 102 123 133 136 133 143 148 155 161
313 311 308 298 287 274 264 258 249 234 218 204 193 189 200 207 192 184 184 191 200 212 218 217 190 177 166 150 116 107 85 115 153 137 135 105 110 139 142 143 146 147 154 155 160
312 305 302 299 289 279 267 256 238 216 206 197 191 196 216 213 203 200 195 199 208 220 216 221 206 193 173 170 158 137 126 125 135 173 151 135 112 146 154 148 149 154 156 164 160
306 303 297 293 287 277 265 241 214 208 205 200 204 214 219 222 212 202 204 212 213 217 208 192 194 191 195 195 210 209 208 207 183 183 171 166 160 157 161 159 158 160 165 165 168
302 296 292 286 275 268 251 220 220 219 214 211 213 227 228 224 209 208 212 209 214 206 208 209 206 221 230 228 233 234 233 220 216 194 178 188 177 179 180 180 176 177 177 175 178
304 295 287 278 266 251 233 228 221 240 238 231 232 235 232 217 218 217 212 213 215 216 221 229 226 231 228 212 216 225 219 208 228 193 188 200 212 199 196 202 195 190 188 187 178
304 297 287 275 261 233 238 241 252 258 238 244 229 226 221 207 218 213 204 210 214 222 223 213 227 250 236 194 204 249 177 206 217 192 214 195 251 214 216 215 211 211 207 201 193
304 296 287 278 241 242 237 244 263 241 246 244 230 230 220 216 230 220 212 206 212 214 215 220 242 229 225 229 230 232 234 223 211 216 234 227 248 240 218 219 215 212 212 217 211
305 295 283 262 249 236 238 252 248 239 251 237 225 227 218 214 222 221 212 216 218 219 215 229 232 223 232 239 236 236 241 246 243 234 257 254 249 255 223 224 221 215 212 214 211
305 293 279 253 243 239 247 251 234 241 243 238 216 215 214 220 220 217 216 222 224 220 226 226 233 234 230 240 247 244 243 253 249 249 266 257 236 252 258 239 225 216 212 206 203
306 294 271 251 239 236 245 234 238 229 238 229 220 214 216 216 219 216 222 224 216 217 228 236 238 242 242 250 252 242 246 251 250 247 232 270 245 250 283 244 218 210 209 210 208
308 293 265 251 242 235 233 231 233 239 229 235 225 219 217 214 225 219 219 216 218 218 223 224 240 235 239 241 238 242 229 224 229 226 245 267 266 272 273 245 213 213 218 217 209
311 290 270 257 239 231 228 231 230 228 233 241 232 217 227 220 216 215 218 215 222 219 220 223 235 235 232 249 234 231 235 232 220 246 234 254 246 255 256 233 205 209 208 219 231
307 292 276 258 233 231 230 231 228 224 237 237 226 222 222 217 211 209 217 223 217 217 220 224 219 225 242 251 248 229 224 237 241 228 222 244 246 245 238 227 198 205 213 222 230
304 292 286 251 242 239 233 232 229 228 235 237 227 230 224 220 215 213 222 226 220 216 215 214 219 234 239 253 247 247 243 240 222 229 219 224 240 241 238 229 214 217 219 229 232
302 292 282 256 254 249 240 233 235 235 234 235 229 227 224 208 210 212 213 227 222 215 222 231 219 227 231 245 238 228 236 231 227 235 229 219 231 234 220 209 207 220 227 233 236
300 285 278 250 256 259 254 245 236 228 225 223 224 224 220 207 206 211 209 220 214 215 215 223 241 237 254 249 250 249 256 233 226 230 234 221 224 213 222 223 228 233 247 251 252
294 283 275 263 262 260 254 249 238 227 220 216 219 219 205 210 214 206 206 218 221 212 209 223 237 233 234 236 239 251 260 246 235 238 232 236 206 216 224 225 232 241 249 255 262
301 275 266 274 282 278 261 243 241 223 203 212 206 206 197 203 203 201 204 205 217 237 230 234 239 245 242 247 243 245 259 257 248 236 237 228 219 225 229 233 239 247 257 264 270
301 284 274 268 275 264 256 246 231 218 201 210 198 203 202 201 208 206 199 214 230 243 248 258 249 243 251 260 262 255 266 259 260 247 244 212 227 230 237 241 252 260 266 271 275
310 289 264 262 262 241 244 252 216 194 199 190 195 185 195 214 196 193 218 224 222 231 247 252 243 250 254 264 264 264 269 257 254 255 232 233 239 240 249 253 260 266 272 276 279